Location: The Jewett Observatory
(46.7288°N, 117.1525°W)
Time: 20:43:14
(UTC-08:00)

Meteor 1-28 Rocket - Visible Passes

Search period start: 09 February 2016 00:00
Search period end: 19 February 2016 00:00
Orbit: 509 x 527 km, 97.2° (Epoch: 08 February)

Date Brightness Start Highest point End Pass type
(mag) Time Alt. Az. Time Alt. Az. Time Alt. Az.
09 Feb 4.1 05:45:45 10° SSE 05:49:28 53° ENE 05:53:13 10° N visible
09 Feb 3.2 18:51:47 47° ENE 18:52:28 55° E 18:56:11 10° S visible
09 Feb 6.3 20:26:48 13° WNW 20:26:48 13° WNW 20:28:08 10° W visible
10 Feb 4.8 05:31:50 10° SE 05:35:22 37° ENE 05:38:57 10° N visible
10 Feb 3.7 18:36:59 28° NE 18:38:16 37° E 18:41:49 10° SSE visible
10 Feb 5.8 20:11:58 19° WNW 20:12:09 19° WNW 20:14:50 10° WSW visible
11 Feb 5.5 05:18:04 10° SE 05:21:19 27° ENE 05:24:34 10° N visible
11 Feb 4.1 18:22:02 17° NE 18:24:03 26° E 18:27:16 10° SSE visible
11 Feb 5.4 19:57:02 22° NW 19:58:07 26° WNW 20:01:16 10° SW visible
12 Feb 6.0 05:04:29 10° ESE 05:07:16 20° ENE 05:10:04 10° NNE visible
12 Feb 4.6 18:07:02 10° NE 18:09:47 19° E 18:12:30 10° SE visible
12 Feb 4.7 19:41:52 19° NNW 19:44:03 35° WNW 19:47:31 10° SW visible
13 Feb 6.3 04:51:08 10° E 04:53:15 14° ENE 04:55:23 10° NNE visible
13 Feb 3.4 06:23:13 10° S 06:26:58 54° W 06:30:45 10° NNW visible
13 Feb 5.0 17:53:36 10° ENE 17:55:30 13° E 17:57:23 10° ESE visible
13 Feb 4.0 19:26:15 10° N 19:29:57 51° WNW 19:33:37 10° SSW visible
14 Feb 6.6 04:38:29 10° ENE 04:39:16 11° ENE 04:40:04 10° NE visible
14 Feb 3.2 06:08:58 10° S 06:12:47 80° WSW 06:16:39 10° NNW visible
14 Feb 3.3 19:12:01 10° N 19:15:50 76° WNW 19:19:34 10° SSW visible
15 Feb 3.6 05:54:50 10° SSE 05:58:38 71° ENE 06:02:28 10° N visible
15 Feb 3.0 18:57:51 10° NNE 19:01:40 74° ESE 19:05:25 10° S visible
15 Feb 6.6 20:34:09 10° NW 20:35:13 11° WNW 20:36:16 10° WNW visible
16 Feb 4.3 05:40:50 10° SSE 05:44:31 48° ENE 05:48:13 10° N visible
16 Feb 3.3 18:43:46 10° NNE 18:47:28 49° E 18:51:07 10° S visible
16 Feb 6.2 20:18:59 10° NNW 20:21:12 15° WNW 20:23:24 10° W visible
17 Feb 5.0 05:26:56 10° SE 05:30:25 33° ENE 05:33:54 10° N visible
17 Feb 3.8 18:29:45 10° NNE 18:33:14 34° E 18:36:40 10° SSE visible
17 Feb 5.8 20:04:20 10° NNW 20:07:10 20° WNW 20:09:59 10° WSW visible
18 Feb 5.7 05:13:12 10° ESE 05:16:20 24° ENE 05:19:28 10° NNE visible
18 Feb 4.3 18:15:53 10° NE 18:18:59 24° E 18:22:03 10° SSE visible
18 Feb 5.2 19:49:50 10° N 19:53:06 28° WNW 19:56:20 10° SW visible
